Terminal Aerodrome Forecast
Issued by NWS

Home | Current Version | Previous Version | Text Only | Print | Product List | Glossary On
Versions: 1 2 3 4 5 6 7 8 9 10 11 12 13 14 15 16 17 18 19 20 21 22 23 24
000
FTUS45 KGJT 282325
TAFRIL
TAF
KRIL 282325Z 2900/2924 22005KT P6SM BKN100
     FM290400 21004KT P6SM BKN120
     FM291200 00000KT P6SM BKN200
     FM291800 00000KT P6SM BKN250=

USA.gov is the U.S. government's official web portal to all federal, state and local government web resources and services.